Jamestown, ND

9:06 PM CDT on September 23, 2017 (GMT -0500)
Jamestown Municipal

Weather History for KJMS - May, 2013

Change the Weather History Date:

Wednesday, May 15, 2013

  Actual Average Record
Temperature  
Mean Temperature 64 °F 55 °F  
Max Temperature 81 °F 68 °F 97 °F (1987)
Min Temperature 46 °F 42 °F 25 °F (1946)
Degree Days  
Heating Degree Days 1 11  
Month to date heating degree days 229 195  
Since 1 July heating degree days 9535 8789  
Cooling Degree Days 0 1  
Month to date cooling degree days 6 4  
Year to date cooling degree days 6 6  
Growing Degree Days 15 (Base 50)    
Moisture  
Dew Point 37 °F    
Average Humidity 43    
Maximum Humidity 71    
Minimum Humidity 15    
Precipitation  
Precipitation 0.00 in 0.09 in 1.10 in (1911)
Month to date precipitation 0.07 1.18  
Year to date precipitation 1.26 4.07  
Sea Level Pressure  
Sea Level Pressure 29.84 in    
Wind  
Wind Speed 11 mph (WNW)    
Max Wind Speed 28 mph    
Max Gust Speed 36 mph    
Visibility 10 miles    
Events      
T = Trace of Precipitation, MM = Missing Value Source: NWS Daily Summary

Daily Weather History Graph

Daily Weather History Graph

Search for Another Location

Airport or City:

Trip Planner

Search our weather history database for the weather conditions in past years. The results will help you decide how hot, cold, wet, or windy it might be!

Date:

Astronomy

May. 15, 2013 Rise Set
Actual Time 5:59 AM CDT 9:03 PM CDT
Civil Twilight 5:23 AM CDT 9:39 PM CDT
Nautical Twilight 4:36 AM CDT 10:26 PM CDT
Astronomical Twilight 3:40 AM CDT 11:23 PM CDT
Moon 10:40 AM CDT (5/15) 12:48 AM CDT (5/15)
Length of Visible Light 16h 16m
Length of Day
15h 04m
Waxing Crescent, 27% of the Moon is Illuminated
May 15
Waxing Crescent
May 17
First Quarter
May 24
Full
May 31
Last Quarter
Jun 8
New

Hourly Weather History & Observations

Time (CDT) Temp. Dew Point Humidity Pressure Visibility Wind Dir Wind Speed Gust Speed Precip Events Conditions
12:56 AM 50.0 °F 39.9 °F 68% 29.81 in 10.0 mi SW 3.5 mph - N/A   Clear
1:56 AM 52.0 °F 42.1 °F 69% 29.82 in 10.0 mi WSW 8.1 mph - N/A   Clear
2:56 AM 54.0 °F 42.1 °F 64% 29.80 in 10.0 mi WSW 9.2 mph - N/A   Clear
3:56 AM 54.0 °F 41.0 °F 62% 29.82 in 10.0 mi West 9.2 mph - N/A   Clear
4:56 AM 50.0 °F 41.0 °F 71% 29.86 in 10.0 mi WNW 6.9 mph - N/A   Clear
5:56 AM 52.0 °F 41.0 °F 66% 29.86 in 10.0 mi West 6.9 mph - N/A   Clear
6:56 AM 52.0 °F 41.0 °F 66% 29.86 in 10.0 mi West 6.9 mph - N/A   Clear
7:56 AM 59.0 °F 43.0 °F 55% 29.87 in 10.0 mi WNW 6.9 mph - N/A   Clear
8:12 AM 60.8 °F 42.8 °F 52% 29.87 in 10.0 mi WNW 5.8 mph - N/A   Partly Cloudy
8:56 AM 66.0 °F 43.0 °F 43% 29.88 in 10.0 mi NW 11.5 mph - N/A   Clear
9:56 AM 71.1 °F 42.1 °F 35% 29.86 in 10.0 mi West 11.5 mph - N/A   Clear
10:56 AM 73.9 °F 39.0 °F 28% 29.85 in 10.0 mi West 15.0 mph - N/A   Clear
11:56 AM 75.0 °F 39.0 °F 27% 29.86 in 10.0 mi West 16.1 mph 26.5 mph N/A   Clear
12:56 PM 78.1 °F 30.0 °F 17% 29.85 in 10.0 mi WNW 17.3 mph 25.3 mph N/A   Clear
1:56 PM 80.1 °F 28.0 °F 15% 29.83 in 10.0 mi West 21.9 mph 29.9 mph N/A   Clear
2:56 PM 80.1 °F 28.9 °F 15% 29.82 in 10.0 mi WNW 18.4 mph 33.4 mph N/A   Clear
3:56 PM 79.0 °F 28.9 °F 16% 29.81 in 10.0 mi WNW 23.0 mph 29.9 mph N/A   Clear
4:56 PM 78.1 °F 33.1 °F 19% 29.82 in 10.0 mi WNW 18.4 mph 25.3 mph N/A   Clear
5:56 PM 77.0 °F 33.1 °F 20% 29.81 in 10.0 mi WNW 13.8 mph - N/A   Clear
6:56 PM 75.9 °F 33.1 °F 21% 29.82 in 10.0 mi NW 15.0 mph 21.9 mph N/A   Clear
7:56 PM 73.0 °F 36.0 °F 26% 29.82 in 10.0 mi NNW 9.2 mph - N/A   Clear
8:56 PM 68.0 °F 36.0 °F 31% 29.83 in 10.0 mi WNW 4.6 mph - N/A   Clear
9:56 PM 61.0 °F 34.0 °F 36% 29.84 in 10.0 mi NW 3.5 mph - N/A   Clear
10:56 PM 59.0 °F 35.1 °F 41% 29.86 in 10.0 mi WNW 3.5 mph - N/A   Clear
11:56 PM 55.9 °F 37.0 °F 49% 29.86 in 10.0 mi Calm Calm - N/A   Clear